Location: Chateh
(58.6667°N, 118.6000°W)
Time: 10:10:49
(UTC+00:00)

O/OREOS (USA 219) - Pass Details

Date: 06 December 2023
Orbit: 621 x 646 km, 72.0° (Epoch: 22 May)

Event Time Altitude Azimuth Distance (km) Brightness Sun altitude
Exits shadow 13:18:03 16° 356° (N) 1,636 ? -22.6°
Maximum altitude 13:19:17 18° 17° (NNE) 1,556 ? -22.4°
Drops below altitude 10° 13:22:22 10° 60° (ENE) 2,011 ? -22.0°
Sets 13:25:18 0° 80° (E) 2,921 ? -21.6°
